Temp
9 9 9 9 9 9 8 8 8 8 8 8 8 8 8 8 8 7 7 7 7 7 7 8 8 8 8 8 8 9 9 9 10 10 10 10 10 11 11 11 11 12 12 12 12 11 11 11 11 11 10 10 10 9 9 9 8 8 7 7 6 6 5 5 5 5 4 4 4 4 4 4 4 3 3 2 2 2 1 1 1 1 1 2 3
9 9 9 9 9 9 8 8 8 8 8 8 7 7 7 7 7 7 7 7 7 7 7 8 8 8 8 8 8 9 9 9 10 10 10 10 11 11 11 11 11 12 12 12 11 11 11 11 11 10 10 10 10 10 9 9 8 7 7 6 6 5 5 5 4 4 4 4 4 4 4 4 4 4 3 3 3 2 2 2 1 1 1 1 2
9 9 9 9 8 8 8 8 8 8 8 7 7 7 7 7 7 7 7 7 7 7 7 8 8 8 8 8 8 9 9 9 10 10 10 11 11 11 11 11 11 12 12 11 11 11 11 11 10 10 10 10 10 10 9 8 8 7 7 6 6 5 5 5 4 4 4 4 4 3 3 4 4 4 4 3 3 3 3 3 2 2 2 2 2
9 9 9 8 8 8 8 8 8 8 7 7 7 7 7 7 7 7 7 7 7 7 7 7 8 8 7 8 9 9 9 9 10 10 10 11 11 11 11 11 11 12 11 11 11 11 11 10 10 10 10 10 10 9 9 8 7 7 6 6 6 5 5 4 4 4 4 4 4 3 3 3 3 3 3 3 3 3 3 3 2 2 2 2 2
9 9 9 8 8 8 8 8 8 8 8 8 7 7 7 7 7 7 7 7 7 7 7 7 8 7 7 8 9 9 9 10 10 10 10 11 11 11 11 11 11 11 11 11 11 11 11 10 10 10 10 9 9 9 8 7 6 6 6 5 5 5 5 4 4 4 4 4 3 3 3 3 3 3 3 3 3 3 2 2 2 2 2 2 2
9 9 9 8 8 8 8 8 8 8 8 7 7 7 7 7 7 7 7 7 7 7 7 7 7 7 7 8 9 9 9 10 10 10 11 11 11 11 11 11 11 11 11 11 11 11 11 10 10 10 9 9 8 8 7 7 6 6 5 5 5 5 4 4 4 4 4 3 3 4 3 3 3 3 3 3 3 3 2 2 2 2 2 2 2
9 9 9 8 8 8 8 8 8 8 7 7 7 7 7 7 7 7 7 7 7 7 7 7 7 7 8 8 9 9 10 10 10 10 11 11 11 11 11 11 11 11 11 11 11 11 11 10 10 9 9 9 8 8 7 7 6 6 5 5 5 4 4 4 4 4 3 3 3 4 4 3 3 3 3 3 3 3 2 2 2 2 2 2 2
9 9 9 9 8 8 8 8 8 8 7 7 7 7 7 7 7 7 7 7 7 7 7 7 7 7 8 9 9 9 10 10 10 10 11 11 11 11 11 11 11 11 11 11 11 11 11 10 10 9 9 9 9 9 8 7 7 6 6 5 5 5 4 4 4 4 3 3 3 3 4 4 3 3 3 3 3 3 3 3 2 2 2 2 3
9 9 9 9 9 9 8 8 8 8 8 7 7 7 7 7 7 7 6 7 7 7 7 7 7 8 8 9 9 9 10 10 10 10 10 11 11 11 11 11 11 11 11 11 11 11 11 10 10 9 9 9 9 9 8 8 7 7 6 6 5 5 5 4 4 4 3 3 3 3 4 4 3 3 3 3 3 3 3 3 3 2 2 2 3
9 9 9 9 9 9 9 9 8 8 8 8 8 8 7 7 7 7 7 7 7 7 7 7 7 8 8 9 9 9 10 10 10 10 10 10 11 11 11 11 11 11 11 11 11 11 11 10 10 9 9 8 8 8 8 8 8 7 7 6 6 5 5 5 4 4 4 4 3 3 3 3 3 3 3 3 3 3 3 3 3 2 2 2 3
9 9 9 9 9 9 9 9 9 8 8 8 8 8 7 7 7 7 7 7 7 7 7 7 8 8 9 9 9 10 10 10 10 10 10 10 10 10 10 11 11 11 11 11 11 11 10 10 10 9 9 8 8 8 8 8 7 7 7 6 6 6 5 5 4 4 4 4 4 4 3 3 3 3 3 3 3 3 3 3 3 3 2 2 3
9 9 9 9 9 9 9 9 9 9 8 8 8 8 7 7 7 7 7 7 7 7 7 8 8 8 9 9 9 9 10 10 10 10 10 10 10 10 10 10 10 11 11 11 11 10 10 10 10 9 9 8 8 8 8 8 7 7 6 6 6 6 5 5 5 4 4 4 4 4 4 3 3 3 3 3 3 3 3 3 3 3 3 2 2
9 9 9 9 9 9 9 9 9 9 9 8 8 8 8 7 7 7 7 7 7 7 8 8 8 9 9 9 9 9 9 10 10 10 10 10 10 10 10 10 10 10 11 11 10 10 10 10 10 9 9 8 8 8 8 7 7 7 6 6 6 5 5 5 5 5 4 4 4 4 4 3 3 3 3 3 3 2 2 2 2 2 2 2 2
10 10 10 9 9 9 9 9 9 9 9 9 8 8 8 8 7 7 7 7 7 7 8 8 8 9 9 9 9 9 9 10 10 9 9 10 10 10 10 10 10 10 10 10 10 10 10 10 10 9 9 8 8 8 8 7 7 7 6 6 6 5 5 5 5 5 5 4 4 4 4 3 3 3 3 3 3 2 2 2 2 2 2 2 2
10 10 10 9 9 9 10 10 9 9 9 9 8 8 8 8 8 8 7 7 7 8 8 8 9 9 9 9 9 9 9 10 10 9 9 9 9 10 10 10 10 10 10 10 10 10 10 10 10 9 9 8 8 8 8 7 7 6 6 6 6 5 5 5 5 4 4 4 4 4 4 3 3 3 3 3 3 3 2 2 2 2 2 2 2
10 10 10 10 10 10 10 10 10 10 9 9 9 8 8 8 8 8 8 8 8 8 8 9 9 9 9 9 9 9 9 10 9 9 9 9 9 9 9 10 10 10 10 10 10 10 10 10 10 9 9 9 8 8 8 7 7 7 6 6 6 5 5 5 4 4 4 4 4 4 4 4 4 3 3 3 3 3 3 2 2 2 2 2 2
10 10 10 10 10 10 10 10 10 10 10 9 9 9 9 8 8 8 8 8 8 8 8 9 9 9 9 9 9 9 9 9 9 9 9 9 9 9 9 9 9 9 10 10 9 9 10 10 10 9 9 9 9 8 8 7 7 7 6 6 6 5 5 5 5 4 4 4 4 4 4 4 4 3 3 3 3 3 3 2 2 2 2 2 2
10 10 10 10 9 9 10 10 10 10 10 10 10 9 9 9 9 9 9 9 8 9 9 9 9 9 9 9 9 9 9 9 9 9 9 9 9 9 9 9 9 9 9 9 9 9 9 9 9 9 9 9 9 8 8 8 7 7 7 6 6 5 5 5 5 4 4 4 4 3 3 3 3 3 3 3 3 3 3 2 2 2 2 2 2
10 10 10 10 9 9 9 10 10 10 10 10 10 10 10 10 9 9 9 9 9 9 9 9 9 9 9 9 9 9 9 9 9 9 9 9 9 9 9 9 9 9 9 9 9 9 9 9 9 9 9 9 8 8 8 8 8 7 7 7 6 5 5 4 4 4 4 4 4 3 3 3 3 3 3 3 3 3 2 2 2 2 2 2 2
10 10 10 10 9 9 9 9 10 10 10 10 10 10 10 10 10 10 9 9 9 9 9 9 9 9 9 9 9 9 9 9 9 9 9 9 9 9 9 9 9 9 9 9 9 9 9 9 9 9 9 9 8 8 8 8 8 8 7 7 6 6 5 4 4 4 4 4 4 3 3 3 3 3 3 3 3 3 2 2 2 2 2 2 2
9 9 10 9 9 9 9 9 9 10 10 10 10 10 10 10 10 10 10 9 9 9 9 9 9 9 9 9 9 9 9 9 9 9 9 9 9 9 9 9 9 9 9 9 9 9 9 9 9 9 9 9 8 8 8 8 8 8 7 7 7 6 5 5 4 4 4 4 3 3 3 3 3 3 3 3 3 3 2 2 2 2 2 2 2
9 9 9 9 9 9 9 9 9 10 10 10 10 10 10 10 10 10 10 10 10 9 9 9 9 9 9 9 9 9 9 9 8 8 8 8 8 9 9 9 9 9 9 9 9 9 9 8 9 9 9 9 8 8 8 8 8 8 8 7 7 6 6 5 5 4 4 3 3 3 3 3 3 3 3 3 3 3 2 2 2 2 2 2 2
9 9 9 9 9 9 9 9 9 9 10 9 9 9 9 9 9 9 10 10 10 10 9 9 9 9 9 9 9 9 9 8 8 8 8 8 8 8 8 9 8 8 8 8 8 8 8 8 8 8 8 8 8 8 8 8 8 8 8 7 7 7 6 6 5 4 4 3 3 3 3 3 3 3 3 3 3 2 2 2 2 2 2 2 2
9 9 9 9 9 9 9 9 9 9 9 9 9 9 9 9 9 9 9 9 9 9 9 9 9 9 9 9 9 9 8 8 8 8 8 8 8 8 8 8 8 8 8 8 8 8 8 8 8 8 8 8 8 8 8 8 8 8 8 8 7 7 7 6 5 5 4 4 3 3 3 3 3 3 3 3 3 2 2 2 2 2 2 2 2
9 9 9 9 9 9 9 9 9 9 9 9 9 9 9 9 9 9 8 8 8 9 9 9 9 9 9 8 8 8 8 8 8 8 8 8 8 8 8 8 8 8 8 8 8 8 8 8 8 8 8 8 8 8 8 8 8 8 8 8 7 7 7 6 6 5 5 4 4 3 3 3 3 3 3 3 3 2 2 2 2 2 2 2 2
9 9 9 9 9 9 9 9 9 9 9 9 9 9 9 9 8 8 8 8 8 8 8 8 8 8 8 8 8 8 8 8 8 8 8 8 8 8 8 8 8 8 8 8 8 8 8 8 8 8 8 8 8 8 8 8 7 7 8 7 7 7 7 6 6 6 5 4 4 3 3 3 3 3 3 3 3 3 2 2 2 2 2 1 1
10 9 9 9 9 9 9 9 9 9 9 9 9 9 8 8 8 8 8 8 8 8 8 8 8 8 8 8 8 8 8 8 8 8 8 8 8 8 8 8 8 8 8 8 8 8 8 8 8 8 8 8 8 8 7 7 7 7 7 7 7 7 7 7 6 6 5 5 4 4 4 3 3 3 3 3 3 3 2 2 1 2 1 1 1
9 9 9 9 9 9 9 9 9 9 9 9 9 8 8 8 8 8 8 8 8 8 8 8 8 7 7 7 7 7 7 7 7 7 8 8 8 8 8 8 8 8 8 8 8 7 8 8 8 8 8 8 8 7 7 7 7 7 7 7 7 7 7 7 7 6 6 5 5 4 4 4 3 3 3 3 3 3 3 2 2 2 2 1 1
9 9 9 9 9 9 9 9 9 9 9 9 8 8 8 8 8 8 8 8 8 8 8 8 8 7 7 7 7 7 7 7 7 7 7 7 7 7 7 7 8 8 8 8 7 7 7 7 7 7 7 7 7 7 7 7 7 7 7 7 7 7 7 7 7 6 6 6 5 4 4 4 4 3 3 3 3 3 3 3 2 2 2 1 1
10 10 9 9 9 9 9 9 9 9 9 8 8 8 8 8 8 8 8 8 8 8 7 7 7 7 7 7 7 7 7 7 7 7 7 7 7 7 7 7 7 7 8 8 8 8 7 7 7 7 7 7 7 7 7 7 7 7 7 7 7 7 7 7 6 6 6 6 5 5 4 4 4 4 3 3 3 3 3 3 3 2 2 2 2
10 10 9 9 9 9 9 9 8 8 8 8 8 8 8 8 8 8 8 7 7 7 7 7 7 7 7 7 7 6 7 7 7 7 6 6 6 6 6 7 7 7 7 7 7 7 7 7 7 7 7 7 7 7 7 7 7 7 7 7 7 7 7 7 6 6 6 6 6 5 5 4 4 4 4 4 3 3 3 3 3 2 2 2 2
10 10 10 9 9 9 9 9 8 8 8 8 8 8 7 7 8 8 8 7 7 7 7 7 7 7 7 7 7 7 7 6 6 6 6 6 6 6 6 6 6 6 6 7 7 7 7 7 7 7 7 7 7 7 7 7 7 7 7 7 7 7 7 7 6 6 6 6 6 5 5 4 4 4 4 3 3 3 3 3 3 3 2 2 2
10 10 10 10 9 9 9 9 9 9 8 8 8 8 8 8 8 8 8 7 7 7 7 7 7 7 7 7 7 7 6 6 6 6 6 6 6 7 6 6 6 6 6 6 6 6 6 7 7 7 7 7 7 7 7 6 6 7 7 7 7 7 7 7 6 6 6 6 6 6 5 5 4 4 4 4 3 3 3 3 3 3 2 2 2
10 10 10 10 9 9 9 9 9 9 8 8 8 8 8 8 8 8 8 8 7 7 7 7 7 7 7 7 7 7 6 6 6 6 6 6 6 6 6 6 6 6 6 6 6 6 6 6 6 6 7 7 7 7 6 6 6 6 6 6 7 7 7 7 6 6 6 6 6 6 5 5 4 4 4 4 3 3 3 3 2 2 2 2 2
10 10 9 9 9 9 9 9 9 9 9 8 8 8 8 8 8 8 8 8 8 8 7 7 7 7 7 7 7 7 7 6 6 6 6 6 6 6 6 6 6 6 6 6 6 6 6 6 6 6 6 6 7 7 7 6 6 6 6 6 6 6 6 6 6 6 6 6 6 6 5 5 5 4 4 4 4 3 3 3 2 2 2 2 2
9 9 9 9 9 9 9 9 9 9 9 9 9 9 9 9 8 8 8 8 8 8 8 7 7 7 7 7 7 7 6 6 6 6 6 6 6 6 6 6 6 6 6 6 6 6 6 6 6 6 6 6 6 7 6 6 6 6 6 6 6 6 6 6 6 6 6 6 6 6 6 5 5 5 4 4 4 3 3 3 2 2 2 2 2
9 9 10 10 10 10 10 10 10 9 9 9 9 9 9 9 9 9 9 9 8 8 8 8 8 7 7 7 7 7 6 6 6 6 6 6 6 6 6 6 6 6 6 6 6 6 6 6 6 6 6 6 6 6 6 6 6 6 6 6 6 6 6 6 6 6 6 6 6 6 5 6 5 5 4 4 4 4 3 3 3 2 2 2 2
9 9 9 10 10 10 10 9 9 9 9 9 9 9 9 9 9 9 9 9 9 9 9 8 8 8 8 8 7 7 7 7 7 7 7 6 6 6 6 6 6 6 6 5 5 5 6 5 5 5 5 5 6 6 6 5 5 5 5 5 5 5 5 6 6 6 6 6 6 6 5 5 6 5 5 4 4 4 4 3 3 3 2 2 3
9 9 9 9 9 9 9 9 9 9 9 9 9 9 9 9 9 9 9 9 9 9 9 8 8 8 8 8 8 8 7 7 7 7 7 7 7 7 7 6 6 6 6 6 5 6 5 5 5 5 5 5 5 6 6 5 5 5 5 5 5 5 5 5 5 5 5 5 6 6 5 5 5 5 5 5 5 4 4 4 3 3 3 2 2
9 9 9 9 9 9 9 9 9 9 9 9 9 9 9 9 9 9 9 9 9 9 8 8 8 8 8 8 8 8 8 8 8 8 8 7 7 7 7 7 7 7 6 6 6 6 5 5 4 5 5 4 5 5 5 5 5 5 5 5 5 5 5 5 5 5 5 5 5 5 5 5 5 5 5 5 5 4 4 4 3 3 3 2 2
9 9 9 9 9 9 9 9 9 9 9 9 9 9 9 9 9 9 8 8 8 8 8 8 8 8 8 8 8 8 8 8 8 8 8 8 7 7 7 7 7 7 7 7 7 6 6 5 5 5 5 4 4 4 4 4 4 4 4 5 4 4 5 5 5 5 5 5 5 5 5 5 5 5 5 5 5 5 4 4 3 3 3 2 2
9 9 9 9 9 9 9 9 9 9 8 8 8 8 8 8 8 8 8 8 8 8 8 8 8 8 8 8 8 8 8 8 8 8 8 8 7 7 7 7 7 7 7 7 7 7 7 6 6 5 5 5 4 4 4 4 4 4 4 4 4 4 4 4 4 4 4 5 5 5 5 5 5 5 5 5 5 5 4 4 3 3 3 2 2
9 9 9 9 9 9 9 9 9 8 8 8 8 8 8 8 8 8 8 8 8 8 8 8 8 8 8 8 8 8 8 8 8 7 7 7 7 7 7 7 7 7 7 7 7 7 7 7 6 6 6 6 5 5 5 4 4 4 4 4 4 4 4 4 4 4 4 4 4 5 5 5 5 5 5 5 5 5 4 4 4 3 2 2 2
9 9 9 9 9 9 9 9 8 8 8 8 8 8 8 8 8 8 8 8 8 8 8 8 8 8 8 8 8 8 8 7 7 7 7 7 7 7 7 7 7 7 7 7 7 7 7 7 7 7 7 6 6 5 5 5 4 4 4 4 3 3 4 4 4 4 4 4 4 4 5 5 5 5 5 5 5 5 5 4 4 3 3 2 2
9 9 9 9 9 9 8 8 8 8 8 8 8 8 8 8 8 8 8 8 8 8 8 8 8 8 8 8 8 8 8 8 7 7 7 7 7 7 7 7 7 7 7 7 7 7 7 7 7 7 7 7 6 6 5 5 5 4 4 3 3 3 3 4 4 4 4 4 4 4 4 4 5 5 5 5 5 5 5 4 4 4 3 2 2
9 8 8 8 8 8 8 8 8 8 8 8 8 8 8 8 8 8 8 8 8 8 8 8 8 8 8 8 8 8 8 8 7 7 7 7 7 7 7 7 7 7 7 7 7 7 7 7 7 7 7 7 7 6 6 6 5 5 4 4 3 3 3 3 3 3 4 4 4 4 4 4 4 4 4 4 5 5 5 4 4 4 3 3 2
8 8 8 8 8 8 8 8 8 8 8 8 8 8 8 8 8 8 8 8 8 8 8 8 8 8 8 8 8 8 8 7 7 7 7 7 7 7 7 7 7 7 7 7 7 7 7 7 7 7 7 7 7 7 6 6 6 5 5 4 4 3 3 2 3 3 4 4 3 4 4 4 4 4 4 4 4 4 4 4 4 4 4 3 3
8 8 8 8 8 8 8 8 8 8 7 7 8 7 7 7 7 7 7 7 8 8 8 8 8 8 8 8 8 8 7 7 7 7 7 7 7 7 7 7 7 7 7 7 7 7 7 7 7 7 7 7 7 7 7 7 6 6 5 5 4 3 3 3 3 3 3 3 3 3 3 4 4 4 4 4 4 4 4 4 4 4 4 4 3
8 8 8 8 8 8 8 8 7 7 7 7 7 7 7 7 7 7 7 7 7 7 7 7 7 7 7 7 7 7 7 7 7 7 7 7 7 7 7 7 7 7 7 7 7 7 7 7 7 7 7 7 7 7 7 7 7 6 6 5 5 4 3 3 3 3 3 3 3 3 3 3 3 3 3 3 4 4 4 4 4 4 4 4 3
8 8 8 8 8 8 8 7 7 7 7 7 7 7 7 7 7 7 7 7 7 7 7 7 7 7 7 7 7 7 7 7 7 7 7 7 7 7 7 7 7 7 7 7 7 7 7 7 7 7 7 7 6 6 6 6 6 6 6 6 6 5 4 3 3 3 3 3 3 3 3 3 3 3 3 3 3 3 4 4 4 4 4 4 4
8 8 8 8 7 7 7 7 7 7 7 7 7 7 7 7 7 7 7 7 7 7 7 7 7 7 7 7 7 7 7 7 7 7 7 7 7 7 7 7 7 7 7 7 7 7 7 6 6 6 6 6 6 6 6 6 6 6 6 6 6 6 5 4 4 3 3 3 3 3 3 3 3 3 3 3 3 3 3 3 4 4 4 4 4
Height
3167 3166 3166 3166 3165 3165 3165 3165 3165 3164 3164 3164 3164 3165 3165 3165 3165 3166 3165 3165 3165 3165 3165 3164 3163 3163 3162 3161 3160 3159 3157 3157 3156 3155 3155 3154 3153 3152 3152 3151 3150 3149 3148 3147 3146 3144 3143 3141 3139 3137 3134 3132 3129 3127 3125 3123 3120 3118 3117 3115 3114 3113 3111 3111 3110 3109 3107 3106 3105 3104 3103 3102 3101 3101 3100 3100 3099 3099 3099 3099 3099 3099 3099 3099 3099
3166 3166 3166 3166 3165 3165 3164 3164 3164 3164 3164 3164 3164 3164 3164 3165 3165 3165 3165 3165 3165 3165 3164 3164 3163 3162 3162 3161 3160 3159 3158 3157 3156 3156 3155 3154 3153 3153 3152 3152 3150 3149 3148 3147 3146 3144 3142 3140 3138 3135 3133 3131 3128 3126 3124 3122 3119 3117 3116 3114 3113 3112 3111 3110 3109 3107 3106 3104 3103 3102 3101 3100 3100 3099 3098 3098 3097 3096 3096 3096 3096 3096 3096 3096 3096
3166 3166 3166 3165 3165 3164 3164 3164 3163 3163 3163 3163 3163 3163 3163 3164 3164 3164 3164 3164 3164 3164 3164 3163 3163 3163 3162 3161 3160 3159 3158 3157 3156 3156 3155 3155 3154 3153 3153 3152 3150 3149 3148 3147 3146 3144 3142 3139 3136 3134 3131 3129 3127 3125 3123 3121 3119 3117 3116 3114 3113 3111 3110 3109 3107 3106 3105 3103 3102 3101 3100 3099 3098 3097 3097 3096 3095 3094 3094 3093 3093 3093 3093 3093 3093
3166 3166 3165 3165 3164 3164 3163 3163 3162 3162 3162 3161 3161 3162 3162 3162 3163 3163 3163 3164 3164 3163 3163 3163 3163 3162 3161 3160 3160 3159 3158 3157 3157 3156 3156 3155 3154 3154 3153 3152 3151 3150 3149 3147 3146 3143 3141 3138 3135 3132 3130 3128 3126 3124 3122 3120 3118 3117 3115 3114 3112 3110 3109 3107 3106 3105 3104 3102 3101 3100 3099 3098 3097 3097 3095 3094 3093 3093 3092 3091 3091 3091 3091 3091 3091
3166 3166 3165 3164 3163 3163 3162 3162 3161 3161 3161 3161 3161 3161 3161 3161 3162 3162 3163 3163 3163 3163 3163 3163 3163 3162 3161 3160 3159 3159 3158 3158 3157 3157 3156 3155 3155 3154 3153 3152 3151 3150 3149 3147 3145 3143 3140 3138 3135 3132 3129 3126 3124 3123 3121 3119 3117 3116 3114 3113 3111 3110 3108 3106 3105 3104 3103 3102 3100 3099 3098 3097 3096 3096 3095 3094 3092 3092 3091 3091 3090 3090 3090 3089 3089
3166 3165 3165 3164 3163 3162 3161 3161 3161 3160 3160 3160 3161 3161 3161 3161 3161 3162 3162 3162 3163 3163 3162 3162 3162 3161 3161 3160 3159 3159 3159 3158 3158 3157 3156 3156 3155 3154 3154 3153 3152 3151 3149 3147 3145 3143 3140 3138 3134 3131 3129 3126 3123 3121 3120 3118 3117 3115 3113 3112 3110 3109 3107 3106 3105 3103 3102 3101 3099 3098 3097 3096 3095 3094 3094 3093 3092 3091 3090 3090 3089 3089 3089 3089 3088
3166 3165 3164 3163 3162 3162 3161 3160 3160 3160 3160 3160 3160 3160 3160 3161 3161 3162 3162 3162 3162 3162 3162 3162 3161 3161 3160 3160 3159 3159 3159 3158 3158 3157 3156 3156 3155 3155 3154 3153 3152 3151 3149 3147 3145 3143 3140 3137 3134 3131 3129 3126 3124 3122 3120 3118 3116 3114 3113 3111 3110 3108 3107 3106 3104 3103 3101 3100 3098 3097 3096 3095 3094 3093 3093 3092 3091 3090 3089 3089 3088 3087 3087 3087 3087
3165 3165 3164 3163 3162 3161 3161 3160 3160 3160 3159 3159 3159 3159 3160 3160 3161 3161 3162 3162 3161 3161 3161 3161 3161 3160 3160 3160 3160 3159 3159 3159 3158 3157 3157 3156 3156 3155 3154 3153 3152 3151 3149 3147 3145 3143 3140 3137 3134 3132 3129 3127 3124 3122 3120 3117 3115 3113 3112 3110 3109 3108 3106 3105 3104 3102 3101 3099 3097 3096 3095 3094 3093 3092 3091 3090 3090 3089 3088 3088 3087 3086 3086 3085 3085
3165 3164 3163 3163 3162 3161 3160 3160 3159 3159 3159 3159 3159 3159 3159 3160 3160 3160 3161 3161 3161 3161 3161 3161 3161 3160 3160 3160 3160 3160 3159 3159 3158 3158 3157 3157 3156 3155 3154 3153 3152 3151 3149 3147 3145 3142 3140 3137 3134 3132 3129 3126 3123 3121 3119 3117 3115 3113 3112 3110 3109 3107 3106 3105 3103 3102 3100 3098 3097 3095 3094 3093 3092 3091 3090 3089 3089 3088 3087 3087 3086 3085 3084 3084 3084
3164 3164 3163 3162 3162 3161 3160 3159 3159 3159 3159 3159 3159 3159 3159 3159 3160 3160 3160 3160 3160 3160 3161 3160 3160 3160 3160 3160 3160 3160 3159 3159 3159 3158 3157 3157 3156 3156 3155 3154 3152 3151 3149 3147 3145 3142 3140 3137 3135 3132 3129 3126 3123 3121 3119 3117 3116 3114 3113 3111 3109 3108 3106 3105 3103 3102 3100 3099 3097 3095 3094 3093 3093 3092 3090 3089 3088 3087 3087 3086 3085 3084 3083 3082 3082
3164 3163 3163 3162 3161 3161 3160 3160 3159 3159 3159 3158 3158 3159 3159 3159 3159 3160 3160 3160 3160 3160 3160 3160 3160 3160 3160 3160 3160 3160 3160 3159 3159 3158 3158 3157 3156 3156 3155 3154 3152 3151 3149 3147 3145 3142 3140 3138 3135 3132 3129 3127 3124 3122 3120 3119 3117 3116 3114 3112 3111 3109 3107 3106 3104 3102 3101 3099 3098 3096 3095 3094 3093 3092 3090 3089 3088 3087 3086 3085 3084 3083 3083 3082 3081
3164 3163 3162 3162 3161 3161 3160 3160 3160 3160 3159 3159 3159 3159 3159 3159 3159 3160 3160 3160 3160 3160 3160 3160 3160 3159 3159 3159 3159 3160 3160 3160 3159 3158 3158 3157 3157 3156 3155 3154 3152 3151 3149 3147 3145 3142 3140 3138 3135 3133 3130 3128 3126 3123 3121 3120 3119 3117 3116 3114 3112 3110 3109 3107 3105 3104 3102 3100 3098 3097 3096 3094 3093 3092 3091 3089 3088 3086 3085 3084 3083 3083 3082 3081 3080
3164 3163 3163 3162 3162 3161 3160 3160 3160 3160 3160 3159 3159 3160 3159 3159 3159 3160 3160 3160 3160 3160 3160 3160 3160 3159 3159 3160 3160 3160 3160 3160 3159 3158 3158 3157 3157 3156 3155 3154 3152 3151 3149 3147 3145 3143 3141 3138 3136 3133 3131 3129 3127 3125 3123 3122 3120 3118 3117 3115 3113 3112 3110 3108 3106 3104 3102 3100 3099 3097 3096 3095 3094 3092 3091 3089 3088 3086 3084 3083 3082 3082 3081 3080 3079
3164 3164 3163 3163 3162 3161 3161 3160 3160 3161 3160 3160 3160 3160 3160 3159 3160 3160 3160 3160 3160 3160 3160 3160 3160 3160 3160 3160 3160 3160 3160 3160 3159 3159 3158 3158 3157 3156 3155 3154 3152 3150 3149 3147 3145 3143 3141 3139 3136 3134 3132 3129 3127 3126 3124 3123 3121 3119 3118 3116 3114 3112 3111 3109 3107 3105 3103 3101 3099 3098 3097 3095 3094 3092 3091 3089 3087 3086 3084 3083 3082 3081 3080 3079 3079
3165 3164 3164 3163 3163 3162 3161 3161 3161 3161 3161 3161 3160 3160 3160 3160 3160 3160 3160 3160 3160 3160 3160 3159 3160 3160 3160 3160 3160 3160 3160 3160 3160 3159 3158 3158 3157 3156 3155 3154 3152 3150 3149 3147 3145 3143 3141 3139 3136 3135 3132 3130 3128 3127 3125 3123 3122 3120 3118 3116 3114 3113 3111 3109 3108 3106 3104 3102 3100 3099 3097 3095 3094 3092 3091 3089 3087 3086 3084 3082 3081 3080 3079 3078 3078
3165 3165 3164 3164 3164 3163 3162 3162 3162 3161 3161 3161 3161 3161 3161 3160 3160 3160 3160 3160 3160 3159 3159 3159 3160 3160 3160 3161 3161 3161 3160 3160 3160 3159 3159 3158 3157 3156 3155 3153 3152 3150 3149 3147 3145 3143 3141 3139 3137 3135 3133 3131 3129 3127 3126 3124 3122 3120 3119 3117 3115 3113 3111 3109 3108 3106 3105 3103 3101 3099 3097 3096 3094 3092 3091 3089 3088 3086 3084 3082 3081 3079 3078 3077 3077
3166 3165 3165 3165 3164 3164 3163 3163 3163 3162 3162 3161 3161 3161 3161 3160 3160 3160 3160 3160 3160 3159 3159 3160 3160 3160 3160 3161 3161 3160 3160 3160 3160 3159 3159 3158 3157 3155 3154 3153 3151 3150 3148 3147 3145 3143 3141 3139 3137 3135 3133 3131 3130 3128 3126 3124 3123 3120 3119 3117 3115 3113 3112 3110 3108 3106 3105 3103 3101 3100 3098 3096 3095 3093 3091 3090 3088 3087 3085 3083 3081 3079 3077 3076 3076
3166 3166 3166 3165 3165 3165 3164 3164 3164 3163 3163 3162 3162 3161 3161 3161 3161 3160 3160 3160 3160 3160 3160 3160 3160 3160 3161 3161 3160 3160 3160 3160 3160 3159 3158 3157 3156 3155 3154 3153 3151 3150 3148 3147 3145 3143 3141 3139 3137 3135 3133 3131 3130 3128 3127 3125 3123 3121 3118 3116 3115 3113 3112 3110 3108 3106 3104 3103 3101 3100 3098 3097 3095 3093 3091 3090 3088 3087 3085 3083 3081 3079 3077 3076 3075
3166 3166 3166 3166 3165 3165 3165 3165 3165 3165 3164 3163 3163 3162 3162 3162 3161 3161 3160 3160 3160 3160 3160 3160 3160 3161 3161 3161 3160 3160 3160 3160 3159 3159 3158 3157 3156 3155 3154 3153 3151 3150 3148 3146 3145 3143 3141 3139 3138 3136 3134 3132 3130 3129 3127 3125 3123 3121 3119 3116 3114 3113 3111 3110 3108 3106 3104 3103 3101 3099 3098 3096 3095 3093 3091 3090 3088 3086 3085 3083 3081 3079 3077 3075 3074
3166 3166 3166 3166 3166 3166 3165 3165 3165 3165 3165 3164 3164 3163 3162 3162 3161 3161 3160 3160 3160 3160 3160 3160 3160 3160 3160 3160 3160 3160 3159 3159 3159 3158 3157 3156 3156 3155 3154 3152 3151 3149 3148 3146 3144 3143 3141 3139 3138 3136 3134 3133 3131 3129 3127 3125 3123 3121 3119 3116 3114 3112 3111 3109 3108 3106 3105 3103 3101 3099 3097 3096 3094 3093 3091 3090 3088 3086 3084 3083 3081 3080 3078 3076 3074
3165 3165 3166 3166 3166 3166 3166 3166 3166 3166 3166 3165 3164 3164 3163 3163 3162 3162 3161 3161 3160 3160 3160 3160 3160 3160 3160 3160 3160 3159 3159 3158 3158 3157 3156 3156 3155 3154 3153 3152 3151 3149 3148 3146 3144 3143 3141 3140 3138 3136 3134 3133 3131 3129 3127 3125 3123 3121 3119 3116 3114 3112 3110 3108 3107 3105 3104 3102 3100 3099 3097 3095 3094 3092 3091 3089 3087 3086 3084 3083 3081 3080 3078 3076 3074
3165 3165 3165 3165 3166 3166 3166 3166 3166 3166 3166 3165 3165 3165 3164 3164 3163 3163 3162 3162 3161 3161 3160 3160 3160 3160 3160 3160 3159 3159 3158 3158 3157 3156 3156 3155 3154 3154 3153 3151 3150 3149 3147 3146 3144 3143 3141 3140 3138 3136 3134 3133 3131 3129 3127 3125 3123 3121 3119 3116 3114 3112 3110 3108 3106 3104 3103 3101 3100 3098 3096 3095 3093 3092 3090 3088 3087 3085 3084 3082 3081 3079 3078 3076 3075
3165 3165 3165 3165 3165 3166 3166 3166 3166 3166 3166 3166 3165 3165 3165 3165 3164 3164 3163 3162 3162 3162 3161 3161 3161 3160 3160 3159 3159 3158 3157 3157 3156 3155 3155 3154 3153 3153 3152 3151 3150 3148 3147 3145 3144 3143 3141 3140 3138 3136 3134 3133 3131 3129 3127 3125 3123 3121 3119 3116 3114 3112 3110 3108 3105 3103 3102 3100 3099 3097 3095 3094 3092 3091 3089 3088 3086 3085 3084 3083 3081 3079 3077 3076 3075
3164 3164 3165 3165 3165 3166 3166 3166 3166 3166 3166 3166 3166 3165 3165 3165 3164 3164 3164 3163 3163 3162 3162 3161 3161 3160 3159 3159 3158 3157 3157 3156 3155 3155 3154 3153 3152 3152 3151 3150 3149 3147 3146 3145 3144 3142 3141 3139 3138 3136 3134 3133 3131 3129 3127 3125 3123 3121 3119 3116 3114 3112 3109 3107 3105 3103 3101 3099 3098 3096 3094 3093 3091 3090 3089 3087 3086 3085 3084 3082 3081 3079 3078 3076 3075
3164 3164 3164 3165 3165 3165 3166 3166 3166 3166 3166 3166 3166 3165 3165 3165 3164 3164 3164 3163 3163 3162 3162 3161 3161 3160 3159 3159 3158 3157 3157 3156 3155 3154 3153 3152 3152 3151 3150 3149 3148 3147 3145 3144 3143 3142 3141 3139 3138 3136 3134 3132 3130 3129 3127 3125 3123 3121 3119 3116 3114 3111 3109 3107 3104 3102 3100 3098 3097 3095 3093 3092 3090 3089 3088 3087 3085 3084 3083 3082 3081 3079 3078 3076 3075
3164 3164 3164 3165 3165 3165 3165 3165 3166 3166 3166 3166 3165 3165 3165 3165 3165 3164 3164 3163 3163 3163 3162 3162 3161 3161 3160 3159 3158 3157 3157 3156 3155 3154 3153 3152 3151 3150 3149 3148 3147 3146 3145 3143 3142 3141 3140 3139 3137 3136 3134 3132 3130 3128 3126 3124 3122 3120 3118 3116 3114 3111 3109 3106 3104 3101 3099 3097 3096 3094 3093 3091 3089 3088 3086 3085 3084 3083 3082 3081 3080 3079 3078 3076 3075
3163 3164 3164 3164 3165 3165 3165 3165 3165 3165 3165 3165 3165 3165 3165 3165 3165 3164 3164 3164 3163 3163 3162 3162 3161 3161 3160 3159 3158 3158 3157 3156 3155 3154 3153 3151 3150 3149 3148 3147 3146 3145 3144 3143 3142 3141 3139 3138 3136 3135 3133 3131 3129 3128 3126 3124 3122 3120 3118 3116 3114 3111 3109 3106 3103 3101 3099 3097 3095 3093 3092 3090 3088 3087 3085 3084 3083 3083 3082 3081 3080 3079 3078 3076 3075
3163 3163 3164 3164 3164 3164 3165 3165 3165 3165 3165 3165 3165 3165 3165 3164 3164 3164 3164 3163 3163 3162 3162 3162 3161 3160 3160 3159 3158 3157 3156 3156 3155 3154 3152 3151 3150 3149 3148 3147 3146 3144 3143 3142 3141 3140 3138 3137 3136 3134 3133 3131 3129 3127 3126 3124 3122 3120 3118 3116 3113 3111 3108 3105 3103 3101 3098 3096 3094 3093 3091 3089 3088 3086 3085 3084 3083 3082 3081 3080 3079 3078 3077 3076 3075
3162 3163 3163 3164 3164 3164 3164 3164 3164 3164 3164 3164 3164 3164 3164 3164 3164 3163 3163 3162 3162 3162 3161 3161 3161 3160 3160 3159 3158 3157 3156 3155 3154 3153 3152 3151 3150 3149 3148 3147 3145 3144 3142 3141 3140 3139 3138 3136 3135 3134 3132 3130 3129 3127 3125 3124 3122 3120 3118 3115 3113 3110 3108 3105 3103 3100 3098 3096 3094 3092 3090 3089 3087 3085 3084 3083 3082 3081 3080 3079 3078 3077 3077 3076 3075
3162 3162 3163 3163 3164 3164 3164 3164 3164 3164 3164 3164 3164 3163 3163 3163 3163 3162 3162 3161 3161 3161 3161 3160 3160 3159 3159 3158 3157 3156 3156 3155 3153 3152 3151 3150 3149 3148 3147 3146 3145 3143 3142 3141 3139 3138 3137 3135 3134 3133 3131 3130 3128 3127 3125 3123 3121 3119 3117 3115 3113 3110 3108 3105 3103 3100 3098 3096 3094 3092 3090 3088 3086 3085 3084 3082 3081 3080 3080 3079 3078 3077 3076 3075 3075
3162 3162 3162 3163 3163 3163 3163 3163 3163 3163 3163 3163 3163 3163 3163 3162 3162 3161 3161 3161 3160 3160 3160 3159 3158 3158 3158 3157 3156 3155 3154 3153 3153 3152 3150 3150 3149 3148 3146 3145 3144 3143 3142 3140 3139 3138 3136 3134 3133 3132 3131 3129 3127 3126 3124 3122 3121 3119 3117 3114 3112 3110 3108 3105 3103 3100 3098 3096 3094 3091 3089 3087 3086 3084 3083 3082 3081 3080 3079 3079 3078 3077 3076 3075 3074
3161 3161 3161 3162 3162 3162 3162 3162 3162 3162 3162 3162 3162 3162 3162 3161 3161 3161 3160 3160 3159 3159 3158 3158 3157 3156 3156 3155 3155 3154 3153 3152 3151 3150 3149 3148 3147 3146 3145 3144 3143 3142 3141 3140 3138 3137 3135 3134 3132 3131 3129 3128 3126 3125 3123 3121 3119 3118 3116 3114 3112 3109 3107 3105 3103 3100 3098 3096 3094 3091 3089 3087 3086 3084 3083 3082 3081 3080 3079 3078 3077 3076 3075 3074 3074
3160 3160 3161 3161 3161 3161 3161 3161 3161 3161 3161 3161 3161 3161 3161 3160 3160 3160 3159 3159 3158 3158 3157 3157 3156 3155 3154 3153 3153 3153 3152 3151 3150 3149 3148 3147 3146 3145 3144 3143 3142 3141 3140 3139 3137 3136 3135 3133 3132 3130 3128 3127 3125 3124 3122 3120 3118 3117 3115 3113 3111 3109 3107 3105 3102 3100 3098 3096 3094 3091 3089 3087 3085 3084 3083 3082 3081 3080 3078 3078 3077 3076 3074 3074 3073
3160 3160 3160 3160 3160 3160 3160 3160 3161 3161 3161 3160 3160 3160 3160 3160 3159 3159 3158 3158 3157 3156 3156 3155 3154 3154 3153 3152 3151 3151 3151 3150 3149 3148 3147 3146 3145 3144 3143 3142 3141 3140 3139 3137 3136 3135 3134 3132 3131 3129 3128 3126 3124 3123 3121 3119 3117 3116 3114 3112 3110 3108 3106 3104 3102 3100 3098 3096 3094 3092 3089 3087 3085 3084 3082 3081 3080 3079 3078 3077 3076 3075 3074 3073 3072
3159 3159 3159 3159 3160 3160 3160 3160 3160 3160 3160 3160 3159 3159 3159 3158 3158 3157 3157 3156 3156 3155 3154 3154 3153 3152 3152 3151 3150 3149 3149 3148 3147 3146 3145 3145 3144 3143 3142 3141 3140 3139 3137 3136 3135 3134 3133 3131 3130 3128 3127 3125 3123 3122 3120 3118 3116 3115 3113 3111 3109 3108 3106 3104 3102 3100 3098 3096 3094 3092 3089 3087 3085 3084 3082 3081 3080 3078 3077 3077 3076 3075 3074 3073 3072
3159 3159 3159 3159 3159 3159 3159 3159 3159 3159 3159 3159 3158 3158 3157 3157 3156 3156 3155 3154 3154 3153 3153 3152 3152 3151 3150 3149 3149 3148 3147 3147 3146 3145 3144 3143 3142 3141 3140 3139 3139 3138 3136 3135 3134 3133 3132 3130 3129 3127 3126 3124 3123 3121 3119 3117 3115 3113 3111 3109 3108 3106 3105 3103 3101 3099 3097 3095 3093 3091 3089 3087 3085 3083 3082 3080 3079 3078 3077 3076 3075 3074 3073 3072 3071
3158 3158 3158 3158 3158 3158 3159 3158 3158 3158 3158 3157 3157 3156 3156 3155 3155 3154 3154 3153 3152 3152 3151 3151 3151 3150 3149 3148 3147 3146 3146 3145 3144 3144 3143 3142 3141 3140 3139 3138 3137 3136 3135 3134 3133 3132 3131 3129 3128 3126 3125 3123 3122 3120 3118 3117 3114 3112 3110 3108 3107 3105 3104 3102 3100 3098 3096 3095 3093 3091 3089 3087 3085 3083 3081 3080 3079 3077 3076 3075 3074 3073 3072 3071 3071
3158 3158 3158 3158 3158 3158 3158 3158 3158 3157 3157 3157 3156 3156 3155 3154 3154 3153 3152 3152 3151 3151 3150 3149 3149 3148 3148 3147 3146 3145 3144 3144 3143 3142 3141 3140 3139 3138 3137 3136 3136 3135 3134 3133 3132 3131 3129 3128 3127 3125 3124 3122 3121 3120 3118 3116 3114 3112 3110 3108 3106 3104 3103 3101 3099 3097 3096 3094 3092 3090 3088 3087 3085 3083 3081 3080 3078 3077 3076 3075 3073 3072 3072 3071 3070
3158 3158 3158 3158 3158 3158 3157 3157 3157 3156 3156 3156 3155 3155 3154 3153 3153 3152 3151 3150 3150 3149 3149 3148 3148 3147 3146 3145 3145 3144 3143 3143 3142 3141 3140 3139 3138 3137 3136 3135 3134 3133 3132 3131 3130 3129 3128 3127 3126 3124 3122 3121 3120 3119 3117 3115 3113 3111 3109 3107 3105 3103 3102 3100 3098 3097 3095 3093 3092 3090 3088 3086 3084 3082 3081 3079 3078 3077 3075 3074 3073 3072 3071 3070 3070
3158 3158 3158 3158 3157 3157 3157 3156 3156 3156 3155 3155 3154 3154 3153 3152 3152 3151 3150 3149 3149 3148 3148 3147 3146 3146 3145 3144 3144 3143 3142 3142 3141 3140 3139 3138 3137 3136 3135 3134 3133 3132 3131 3129 3128 3127 3126 3125 3124 3123 3122 3120 3118 3117 3116 3114 3112 3110 3108 3106 3105 3103 3101 3099 3097 3096 3094 3092 3091 3089 3087 3085 3084 3082 3080 3079 3077 3076 3075 3074 3072 3071 3071 3070 3069
3157 3157 3157 3157 3157 3156 3156 3156 3155 3155 3155 3154 3153 3153 3152 3151 3151 3150 3149 3148 3148 3147 3146 3146 3145 3144 3144 3143 3142 3142 3141 3140 3139 3139 3138 3137 3135 3134 3133 3132 3131 3130 3129 3128 3127 3125 3124 3123 3122 3121 3120 3118 3117 3115 3114 3113 3111 3109 3107 3106 3104 3102 3100 3098 3097 3095 3093 3092 3090 3088 3087 3085 3083 3081 3080 3078 3077 3076 3075 3073 3072 3071 3070 3070 3069
3156 3156 3156 3156 3156 3156 3155 3155 3155 3154 3154 3153 3153 3152 3151 3150 3150 3149 3148 3147 3147 3146 3145 3144 3144 3143 3143 3142 3141 3140 3140 3139 3138 3137 3136 3135 3134 3133 3131 3130 3129 3128 3127 3126 3125 3124 3122 3121 3121 3120 3118 3117 3115 3113 3111 3110 3109 3108 3106 3104 3103 3101 3099 3097 3096 3094 3092 3091 3089 3087 3086 3084 3082 3081 3079 3078 3077 3076 3074 3073 3072 3071 3070 3069 3069
3156 3156 3155 3155 3155 3155 3154 3154 3154 3153 3153 3152 3151 3151 3150 3149 3149 3148 3147 3146 3145 3144 3144 3143 3142 3142 3141 3140 3140 3139 3138 3137 3137 3136 3135 3134 3132 3131 3129 3128 3127 3126 3124 3123 3122 3121 3120 3119 3118 3117 3116 3115 3113 3112 3110 3108 3107 3106 3104 3103 3101 3100 3098 3096 3095 3093 3091 3090 3088 3086 3085 3083 3082 3080 3079 3078 3076 3075 3074 3073 3072 3071 3070 3069 3068
3155 3155 3155 3154 3154 3154 3153 3153 3152 3152 3151 3151 3150 3149 3149 3148 3147 3146 3146 3145 3144 3143 3142 3141 3141 3140 3139 3139 3138 3137 3136 3136 3135 3134 3133 3132 3131 3129 3128 3126 3125 3124 3122 3121 3120 3119 3118 3117 3116 3114 3113 3112 3111 3110 3108 3106 3104 3103 3103 3101 3100 3098 3097 3095 3093 3092 3090 3088 3087 3085 3084 3082 3081 3080 3078 3077 3076 3075 3074 3073 3071 3070 3070 3069 3068
3154 3154 3154 3153 3153 3153 3152 3152 3151 3150 3150 3149 3149 3148 3147 3147 3146 3145 3144 3143 3142 3141 3140 3140 3139 3138 3138 3137 3136 3135 3135 3134 3133 3132 3131 3130 3129 3128 3126 3125 3123 3122 3121 3120 3118 3117 3116 3114 3113 3112 3111 3109 3108 3107 3106 3104 3102 3101 3100 3099 3098 3096 3095 3093 3092 3091 3089 3087 3086 3084 3083 3081 3080 3079 3077 3076 3075 3074 3073 3072 3071 3070 3069 3068 3067
3153 3153 3152 3152 3152 3151 3151 3150 3150 3149 3149 3148 3147 3147 3146 3145 3144 3144 3143 3142 3141 3140 3139 3138 3137 3137 3136 3135 3134 3134 3133 3132 3131 3130 3129 3128 3127 3126 3125 3123 3122 3121 3119 3118 3117 3115 3114 3113 3111 3110 3109 3107 3106 3104 3103 3101 3100 3099 3098 3096 3096 3095 3093 3092 3090 3089 3087 3086 3084 3083 3082 3080 3079 3078 3076 3075 3074 3073 3072 3071 3070 3069 3068 3068 3067
3152 3151 3151 3151 3150 3150 3150 3149 3148 3148 3147 3147 3146 3145 3145 3144 3143 3142 3141 3141 3140 3139 3138 3137 3136 3135 3134 3133 3132 3132 3131 3130 3129 3128 3127 3126 3125 3124 3123 3122 3120 3119 3118 3116 3115 3114 3112 3111 3110 3108 3107 3106 3104 3103 3101 3099 3098 3097 3095 3094 3093 3092 3091 3090 3088 3087 3086 3084 3083 3082 3080 3079 3078 3076 3075 3074 3073 3072 3071 3070 3069 3068 3067 3067 3066
3151 3150 3150 3149 3149 3149 3148 3148 3147 3147 3146 3145 3145 3144 3143 3142 3142 3141 3140 3139 3138 3137 3136 3135 3134 3133 3133 3132 3131 3130 3129 3128 3127 3126 3125 3124 3123 3122 3121 3120 3119 3118 3116 3115 3114 3112 3111 3109 3108 3106 3105 3104 3102 3101 3100 3098 3096 3095 3093 3092 3091 3090 3089 3088 3087 3085 3084 3083 3081 3080 3079 3078 3076 3075 3074 3073 3072 3071 3070 3069 3068 3067 3066 3065 3065
3149 3149 3148 3148 3148 3147 3147 3147 3146 3145 3145 3144 3143 3143 3142 3141 3140 3139 3138 3138 3137 3136 3135 3134 3133 3132 3131 3130 3129 3128 3127 3126 3125 3124 3123 3122 3121 3120 3119 3118 3117 3116 3115 3113 3112 3111 3109 3108 3106 3105 3103 3102 3100 3099 3098 3096 3094 3093 3091 3090 3088 3087 3086 3086 3085 3084 3082 3081 3080 3079 3078 3076 3075 3074 3072 3071 3070 3069 3068 3067 3066 3065 3064 3064 3063
3148 3148 3147 3147 3147 3146 3146 3145 3144 3144 3143 3142 3142 3141 3140 3140 3139 3138 3137 3136 3135 3134 3133 3132 3131 3130 3129 3128 3127 3127 3126 3125 3124 3123 3122 3121 3119 3118 3117 3116 3115 3114 3112 3111 3110 3109 3107 3106 3104 3103 3101 3100 3098 3097 3095 3094 3092 3091 3089 3088 3086 3085 3083 3083 3082 3081 3080 3079 3078 3077 3076 3075 3073 3072 3071 3069 3068 3067 3066 3065 3064 3064 3063 3062 3061
3147 3147 3146 3146 3145 3145 3144 3144 3143 3142 3142 3141 3140 3140 3139 3138 3138 3137 3136 3135 3134 3133 3132 3130 3129 3129 3128 3127 3126 3125 3124 3123 3122 3121 3120 3119 3118 3116 3115 3114 3113 3112 3110 3109 3108 3106 3105 3103 3102 3100 3099 3097 3096 3094 3093 3091 3090 3089 3087 3085 3084 3082 3081 3079 3078 3078 3077 3077 3076 3075 3074 3073 3071 3070 3069 3068 3066 3065 3064 3063 3062 3061 3061 3060 3059
Wind_Speed
6 5 5 4 4 4 4 5 6 6 7 7 7 7 8 8 7 6 5 6 6 7 9 11 14 14 14 14 14 14 12 12 11 10 9 8 8 9 9 10 12 14 15 15 16 18 19 20 22 22 23 24 24 24 23 22 20 19 19 18 17 16 16 16 15 15 15 16 17 17 17 18 18 18 18 18 19 20 21 21 20 20 20 20 20
7 6 5 4 5 5 5 6 7 8 8 8 8 8 8 7 6 6 6 6 6 8 10 12 13 13 13 13 14 13 11 11 10 9 9 9 9 9 10 11 12 13 15 16 17 19 20 21 23 23 23 23 22 22 21 20 18 17 17 16 15 14 14 15 15 14 14 15 16 17 16 16 16 17 17 17 18 19 20 21 23 24 23 23 22
9 7 6 6 5 5 6 6 8 8 9 9 9 9 8 7 7 6 6 7 7 9 10 11 12 11 12 13 12 11 10 10 9 9 9 10 9 10 11 11 12 13 15 17 18 19 21 23 24 24 23 22 22 22 22 20 18 17 15 14 13 13 14 15 16 16 15 15 15 15 15 15 15 16 17 18 18 18 17 17 19 21 23 24 24
9 8 7 7 6 5 6 6 7 8 8 9 9 9 8 8 7 7 7 7 8 9 10 10 11 11 11 11 10 9 9 8 8 8 9 9 9 10 11 11 12 13 15 17 18 20 22 24 25 23 22 22 23 23 22 19 18 17 16 15 15 15 16 16 17 17 16 16 15 15 15 15 15 16 17 18 18 16 15 15 14 15 15 17 18
9 8 7 6 6 6 6 5 6 6 7 8 7 7 7 6 6 7 7 8 9 10 10 10 10 10 10 10 9 8 7 7 7 8 9 9 9 10 10 10 12 14 15 17 19 21 23 25 24 22 22 23 24 24 22 21 20 19 18 18 17 17 17 17 17 17 16 16 15 15 14 14 14 15 16 16 16 15 13 13 12 12 13 13 13
8 8 7 6 6 6 6 5 5 5 6 6 6 6 5 5 5 7 8 9 9 10 9 8 8 8 9 8 7 7 6 6 7 8 8 9 9 10 10 10 12 14 15 17 20 22 24 25 23 21 21 23 25 25 24 22 22 21 21 20 19 19 18 17 16 16 16 17 16 15 14 14 14 15 15 15 14 14 13 12 12 12 11 12 12
7 7 7 7 7 6 6 6 5 5 6 6 5 4 4 4 5 6 7 7 8 8 7 6 7 7 8 7 6 5 5 5 6 7 8 9 9 9 8 9 12 14 15 17 20 23 25 25 23 21 21 22 23 24 24 24 24 23 22 21 20 19 18 17 17 16 17 17 17 15 13 13 13 14 14 14 13 13 13 13 13 13 13 12 11
7 7 7 7 7 6 6 6 5 4 5 5 3 2 3 4 4 4 5 5 6 6 5 5 6 6 6 6 4 4 4 4 5 6 7 8 8 8 8 9 12 14 16 18 21 23 25 26 24 21 21 22 23 25 26 26 25 24 23 21 19 17 17 17 17 17 17 17 16 14 12 11 12 14 15 15 15 14 14 14 14 15 15 14 13
7 7 7 7 7 7 7 6 5 5 4 3 1 1 3 4 3 3 4 5 5 5 4 4 5 5 5 4 3 2 3 3 4 6 7 8 7 7 8 10 12 14 16 18 21 23 25 26 24 22 21 22 24 26 27 27 26 25 23 20 17 16 15 15 16 15 15 15 14 13 12 11 12 14 15 15 15 15 15 15 15 15 16 15 14
7 7 7 7 7 8 7 6 6 5 4 1 1 1 1 2 3 3 4 5 4 4 3 3 3 4 4 3 2 2 2 3 4 6 7 7 7 7 8 10 12 14 16 19 21 23 25 26 25 24 22 23 24 25 25 26 26 24 22 19 17 16 15 14 14 14 14 14 14 13 12 12 12 13 14 15 15 15 14 14 14 14 15 15 14
7 6 6 7 7 7 7 6 6 5 3 1 1 2 1 2 2 2 4 4 3 3 3 2 3 3 3 1 1 2 2 3 4 6 7 7 7 7 9 10 12 14 16 18 20 23 24 25 25 24 23 22 23 23 23 24 24 22 21 19 18 16 15 14 13 14 14 15 14 14 13 13 13 13 14 14 15 15 15 14 13 13 13 14 15
7 6 6 7 7 7 7 6 5 4 3 2 2 1 2 2 2 2 3 3 3 2 3 3 2 2 2 1 1 2 2 3 4 5 6 7 7 8 9 10 12 14 16 18 20 21 23 24 25 24 23 22 22 22 21 21 21 20 19 19 18 18 16 14 13 13 14 14 14 14 14 14 14 14 14 14 14 15 15 14 13 12 12 13 14
6 6 6 7 7 7 7 6 5 5 4 4 3 2 2 2 1 2 2 2 2 2 3 2 1 1 1 0 1 2 2 3 4 5 6 7 8 9 10 10 12 13 15 17 19 20 22 23 24 24 23 22 21 21 20 19 19 19 18 17 17 18 17 16 15 14 13 14 14 15 15 15 15 15 15 15 15 14 15 14 13 12 12 12 13
5 6 6 7 8 8 8 7 5 4 5 4 3 3 2 1 2 2 1 1 2 3 3 2 0 2 2 1 1 2 2 2 3 5 6 8 9 10 11 11 12 13 14 16 18 19 21 22 23 23 23 22 21 20 19 18 18 17 17 16 16 16 17 17 17 16 15 15 15 16 16 15 15 16 16 16 15 15 14 14 14 13 12 11 12
4 5 6 7 8 10 10 9 7 5 5 4 3 2 1 1 2 2 1 2 3 4 4 2 1 2 2 0 1 2 2 2 3 4 6 8 10 11 11 12 12 12 14 16 18 19 20 22 23 23 23 22 21 20 19 18 17 16 16 16 16 16 16 16 16 16 16 16 16 16 16 16 16 16 17 17 16 15 14 14 14 13 12 11 11
4 4 5 7 9 11 12 12 11 9 7 5 4 2 0 1 2 3 3 3 4 5 4 2 2 2 1 0 1 2 3 3 3 5 6 8 10 12 12 12 12 12 13 15 17 19 19 21 22 23 23 22 21 20 20 18 17 16 15 16 16 15 14 13 14 14 15 15 16 16 16 16 15 16 16 16 15 15 15 14 14 14 13 12 11
3 3 4 6 8 10 12 12 13 11 10 7 5 4 2 2 3 4 4 4 5 5 4 2 2 2 1 1 2 3 4 4 4 5 7 9 11 12 13 13 13 13 13 14 16 18 19 20 21 22 23 23 22 21 20 19 18 16 15 15 16 15 14 13 13 13 14 15 15 16 16 15 15 15 15 14 14 14 14 15 14 14 13 12 10
2 2 3 5 7 8 10 11 12 12 11 9 7 6 5 4 4 4 4 4 4 4 3 2 1 1 2 2 3 4 4 5 6 6 7 9 11 13 14 14 14 13 13 14 15 17 19 20 20 21 22 23 23 22 21 20 19 18 17 16 15 15 15 15 14 14 14 14 15 15 15 15 15 15 15 14 14 14 14 15 15 14 13 12 10
1 1 2 3 4 6 7 9 10 10 10 10 9 7 7 6 5 4 4 4 4 3 3 1 1 1 3 3 5 5 6 6 7 8 8 9 11 13 14 14 14 14 14 14 15 17 18 19 20 20 21 22 23 23 22 21 20 19 18 17 16 15 15 15 15 15 15 15 15 15 15 15 16 15 15 14 14 14 14 15 15 14 14 13 11
1 0 1 2 3 4 5 6 7 8 9 10 10 10 9 9 8 7 6 4 3 2 2 1 1 2 3 4 5 6 7 8 8 9 9 10 12 13 14 14 14 14 14 15 15 16 18 19 20 20 21 22 22 23 23 23 22 20 20 19 18 17 16 15 15 15 16 16 16 15 14 14 15 15 14 14 14 14 14 14 14 14 14 14 13
0 1 0 1 2 2 4 4 5 6 7 9 10 11 11 11 11 10 8 5 3 2 1 1 2 3 4 5 6 7 8 8 9 10 11 11 12 13 14 14 14 14 14 15 16 17 17 18 19 20 21 21 22 23 23 23 23 22 21 20 19 18 17 16 15 15 16 16 16 15 14 14 14 14 14 14 13 14 14 14 14 13 13 13 13
1 1 1 0 1 1 3 3 3 5 6 7 8 10 11 11 12 11 10 8 6 4 3 2 3 4 5 6 7 8 9 9 10 11 12 13 13 13 14 14 14 14 14 15 16 17 17 18 18 19 20 21 22 23 24 24 24 24 23 22 21 20 18 17 16 16 16 16 16 15 15 15 14 14 13 13 13 14 15 15 14 13 12 12 12
2 2 1 1 0 0 2 3 3 4 5 6 7 8 9 10 11 12 11 11 9 8 6 5 5 5 6 7 8 9 10 11 11 12 13 13 14 14 14 15 15 15 15 15 16 16 17 18 18 19 19 20 22 23 24 24 25 25 24 23 22 21 20 18 17 16 16 16 16 16 15 15 15 14 13 13 13 13 14 15 14 13 12 12 12
2 2 2 2 2 1 2 2 3 4 5 5 6 7 8 10 11 11 11 11 11 10 10 9 8 8 9 10 11 12 12 12 11 12 12 13 14 14 15 15 16 16 16 16 16 16 17 18 18 19 19 20 21 22 23 24 25 25 24 24 23 22 21 20 18 17 16 15 15 15 15 15 14 13 12 12 11 12 13 13 13 12 12 12 12
2 2 2 2 2 2 2 3 3 5 5 5 5 6 7 9 10 10 11 11 11 11 11 11 11 10 11 11 11 12 12 12 12 11 11 12 13 13 14 15 16 17 17 17 17 16 17 18 18 19 19 20 21 22 22 23 24 25 25 24 23 22 22 21 20 19 17 16 15 15 15 15 14 13 12 11 10 10 11 12 11 11 11 12 13
3 2 2 2 2 2 2 3 4 5 5 5 5 6 7 8 8 9 9 9 9 9 9 9 10 10 10 10 11 11 12 12 13 12 12 12 13 13 13 14 16 17 18 18 18 18 17 17 18 19 20 20 21 22 23 23 24 24 25 24 24 23 22 21 21 20 19 18 16 16 16 15 15 13 11 11 10 9 10 11 10 10 11 11 13
4 3 2 1 1 1 2 3 3 4 5 5 6 6 7 8 8 8 8 8 8 8 8 9 9 9 10 10 10 11 11 12 13 14 14 14 14 13 13 14 15 16 17 18 18 19 18 18 18 19 20 20 21 22 23 23 23 24 24 24 24 23 22 22 22 21 20 19 18 17 17 16 16 13 11 10 9 9 9 9 8 8 9 10 12
5 4 3 2 1 2 2 3 3 4 4 5 6 7 7 8 8 8 8 8 9 9 10 10 10 10 11 11 12 12 12 13 13 14 14 14 14 14 14 14 14 15 16 17 18 19 19 18 18 18 19 20 20 21 22 23 23 23 23 24 24 23 23 23 23 23 22 21 19 18 18 17 16 14 11 9 8 9 9 8 6 6 7 7 10
6 6 5 5 4 3 3 4 5 5 5 5 6 7 7 8 9 9 10 10 10 11 12 12 11 11 12 12 12 12 13 14 14 14 14 14 13 13 14 15 15 16 16 17 18 19 19 19 18 18 19 19 19 20 21 22 22 22 22 23 23 23 23 23 23 23 23 22 21 19 18 18 16 14 12 9 8 8 8 8 6 5 5 5 7
6 7 7 6 6 6 6 6 6 6 6 6 7 8 9 9 10 11 12 12 12 12 12 13 13 13 13 13 13 13 14 14 15 15 15 15 14 14 15 16 16 16 17 17 17 18 18 19 19 19 19 19 19 19 20 21 22 22 23 23 23 23 23 23 23 23 23 23 22 20 18 18 16 15 12 10 8 7 7 7 7 6 5 5 5
5 6 6 6 7 8 8 7 8 8 8 8 9 10 10 10 11 12 12 13 14 14 14 14 14 14 14 14 14 15 16 16 16 16 16 15 16 16 16 17 17 16 17 17 17 18 18 19 19 19 18 18 19 20 20 21 22 22 22 23 23 23 23 22 22 23 23 23 22 21 19 17 16 15 13 11 8 7 6 7 7 7 6 5 5
5 5 5 6 7 8 9 9 9 10 10 9 9 9 10 10 11 12 13 13 14 14 15 15 15 16 16 15 15 16 17 17 17 17 17 17 17 17 17 17 17 17 17 17 17 18 18 19 20 20 19 18 19 19 20 21 22 22 22 23 23 23 22 22 22 22 23 23 22 21 20 18 16 15 13 11 9 7 6 7 8 7 7 6 5
5 5 5 6 7 8 9 10 10 10 9 9 9 9 10 11 12 13 13 14 14 14 15 16 16 17 17 17 16 16 17 17 18 18 18 18 18 17 17 17 18 18 18 17 17 17 18 19 20 21 20 19 19 19 20 21 22 22 22 22 23 23 22 22 22 22 22 23 22 22 20 18 16 15 13 12 10 8 7 7 7 8 7 6 5
5 5 6 6 7 8 9 9 9 9 9 9 10 10 11 12 12 13 13 14 15 16 16 17 17 16 17 17 17 17 18 18 18 18 18 18 18 18 17 18 19 18 18 18 18 19 19 19 20 21 21 21 20 19 20 20 21 22 22 22 22 23 23 23 23 22 22 22 22 22 21 19 17 15 13 12 10 8 7 8 8 8 8 7 6
4 4 5 5 6 7 8 8 8 8 9 10 10 11 12 12 12 13 14 14 15 15 15 16 16 16 17 18 18 18 18 18 18 18 18 19 19 18 18 18 18 18 17 18 18 19 20 20 21 21 22 22 22 21 20 20 21 21 22 22 22 22 23 23 23 23 23 22 22 22 21 20 18 16 14 12 10 9 8 8 9 9 9 8 6
2 2 3 3 3 4 5 6 6 7 8 8 9 9 10 10 10 11 11 11 12 12 12 13 14 15 16 16 16 17 17 16 16 17 17 18 19 18 18 18 18 17 17 17 17 18 20 20 21 22 22 23 23 23 23 22 21 21 21 21 21 22 22 22 23 23 23 22 22 22 21 21 19 17 14 13 11 10 9 9 9 9 9 8 7
1 1 1 2 2 2 3 4 5 6 6 6 7 7 8 8 8 9 9 9 10 10 10 10 10 11 11 11 12 13 13 14 14 15 16 17 17 17 18 18 18 17 18 18 18 18 19 19 20 20 21 22 23 24 24 24 23 23 22 22 21 21 21 21 21 22 22 22 21 21 21 20 20 18 15 13 12 10 9 9 9 8 8 8 7
0 1 1 2 2 2 3 3 4 4 4 5 6 6 7 8 8 8 9 9 10 10 11 11 10 10 9 9 10 11 11 11 12 13 14 15 16 16 17 17 16 16 17 17 18 18 18 18 19 20 20 21 21 22 23 23 24 24 24 22 21 21 20 20 20 21 21 21 21 20 20 20 19 18 17 14 13 11 10 9 8 8 7 7 7
0 1 1 2 2 2 2 3 3 4 4 5 6 7 7 8 8 9 9 10 10 11 11 11 11 11 11 10 11 11 12 12 13 14 15 15 16 16 16 16 15 15 15 16 16 17 17 18 19 20 21 22 22 22 22 23 24 24 23 21 20 20 21 20 19 20 20 21 20 19 19 19 19 18 17 15 14 12 10 8 8 7 7 6 6
1 1 2 2 3 3 3 4 5 6 7 7 8 8 8 9 9 9 9 10 10 11 11 11 11 12 12 12 12 12 13 14 14 15 15 16 17 17 17 16 16 15 16 16 16 16 17 17 18 19 21 22 22 23 24 24 24 24 23 21 19 19 20 20 19 19 20 20 20 19 19 18 18 17 17 16 14 12 10 8 7 7 6 6 6
1 1 2 3 4 4 4 5 5 7 7 8 8 9 9 10 10 10 10 10 10 11 11 11 11 12 12 13 13 14 14 15 15 16 16 17 17 17 17 17 17 16 16 16 16 17 18 17 18 20 22 23 23 24 25 25 24 24 24 22 19 18 19 20 20 20 20 20 19 19 19 18 17 17 16 16 15 13 11 9 7 6 5 5 5
1 2 2 3 4 4 5 5 6 7 7 8 8 9 10 10 11 11 11 11 11 11 12 12 12 12 13 13 14 15 15 16 17 17 17 17 18 18 18 18 18 18 17 17 17 17 18 17 17 18 21 23 25 26 26 26 25 24 24 23 20 18 18 19 20 20 20 20 19 19 19 18 18 16 15 16 15 13 11 9 7 6 5 4 5
2 2 3 4 5 5 6 6 7 7 8 9 9 10 10 11 11 11 12 12 12 12 12 12 12 13 14 14 15 16 16 17 17 17 17 18 18 19 19 19 19 19 19 19 18 18 18 18 17 17 18 20 22 24 25 27 26 25 24 23 21 18 18 18 18 19 20 20 19 18 18 18 18 17 15 15 15 14 12 10 8 6 5 5 5
2 3 4 5 5 6 7 7 8 8 9 10 10 11 11 12 12 12 12 12 12 12 12 13 13 13 13 14 15 15 16 16 17 17 17 18 18 19 19 20 20 20 20 20 19 19 19 18 18 18 18 19 20 20 23 27 27 25 23 23 21 20 20 19 17 18 20 21 20 19 18 17 17 17 16 15 14 14 13 12 9 7 6 6 6
4 4 5 5 6 7 7 8 8 9 10 11 11 12 12 12 12 13 13 13 13 13 13 13 13 14 14 14 14 14 15 15 16 16 17 17 18 18 18 19 19 19 19 19 19 19 19 18 18 18 18 19 20 21 23 26 26 24 22 21 20 21 23 22 19 18 19 21 21 20 19 17 17 17 17 15 14 13 13 13 11 9 7 7 7
4 5 6 6 7 7 8 8 9 10 11 11 12 12 12 12 12 12 13 13 13 13 14 14 14 14 14 14 14 15 15 15 16 16 17 17 17 18 17 17 18 18 19 19 18 18 18 18 17 17 17 17 19 20 22 24 24 22 21 21 20 21 23 24 22 21 20 20 21 21 19 18 17 17 16 16 15 14 13 13 12 11 9 8 8
5 6 7 7 7 8 8 9 10 10 11 11 12 12 12 12 12 12 12 12 13 13 13 14 14 14 15 15 15 15 16 16 17 17 18 18 18 18 18 17 17 18 18 18 18 18 18 18 17 17 17 17 17 18 20 21 22 22 21 21 21 21 21 22 23 23 21 20 20 21 20 19 18 17 17 16 16 15 14 13 12 12 11 10 9
6 7 8 8 8 9 9 9 10 10 11 11 12 12 12 12 12 12 12 12 13 13 13 13 14 14 15 15 15 16 16 17 17 18 18 18 19 19 18 18 18 18 18 18 18 18 18 18 18 18 18 18 18 18 18 19 21 21 21 21 21 21 21 20 22 24 23 20 19 19 19 19 19 18 18 18 17 16 15 14 13 13 12 12 11
7 8 9 9 9 10 10 10 10 10 11 12 12 13 13 13 12 12 12 13 13 13 13 14 14 14 15 15 15 16 16 17 17 18 18 19 19 19 19 19 19 18 18 18 18 18 18 19 19 19 19 19 19 19 19 19 20 21 22 22 22 22 20 19 21 23 23 21 20 19 19 18 19 20 20 20 19 18 16 15 14 13 13 13 13
9 9 10 10 10 11 11 11 11 11 12 13 13 14 14 14 13 13 13 13 14 14 14 14 15 15 15 15 16 16 16 17 17 18 18 19 19 19 19 20 20 20 20 20 20 20 20 20 20 20 20 20 20 20 19 19 19 20 21 22 22 23 22 21 22 22 21 20 21 22 21 20 20 21 21 20 19 19 18 17 16 15 14 14 14
10 11 11 11 11 11 11 12 12 13 14 14 15 15 15 15 15 15 15 15 15 15 15 16 16 16 16 16 16 16 17 17 17 18 18 19 19 19 20 20 20 21 21 21 21 21 21 21 21 21 21 21 21 21 20 20 20 20 20 21 22 23 23 23 24 23 21 20 21 23 23 23 22 21 20 20 19 19 19 19 18 16 15 15 15
Wind_Direction
14 7 357 341 320 302 291 283 282 278 270 268 270 274 277 277 274 270 283 296 298 302 313 319 325 336 344 346 354 1 2 5 7 8 15 17 11 10 11 10 9 10 8 4 357 351 347 343 340 338 336 336 334 332 333 334 333 331 331 333 335 335 333 331 330 330 327 327 326 325 322 318 314 311 307 301 295 290 286 285 284 283 283 283 279
6 359 348 330 311 301 293 286 284 280 273 269 269 272 275 277 278 280 286 290 287 296 309 316 324 335 341 346 356 360 359 1 3 7 16 19 18 20 21 18 14 10 7 3 356 350 346 344 342 341 341 340 340 342 346 346 344 342 342 343 343 341 339 335 334 335 336 334 333 330 329 327 322 318 315 309 303 297 289 283 279 278 278 279 282
3 358 348 333 318 307 299 294 291 287 280 275 273 273 276 279 281 281 282 281 284 296 307 314 324 334 342 347 355 359 358 358 360 7 17 20 22 26 28 23 15 10 6 1 355 350 348 347 346 346 347 348 352 354 355 354 352 350 349 347 346 345 344 341 337 337 337 334 331 329 329 330 328 325 322 318 314 310 305 298 290 285 282 281 282
2 356 349 341 334 324 313 304 297 290 283 280 278 277 278 277 275 272 273 276 284 297 305 312 323 335 342 346 353 360 359 356 360 12 19 20 26 32 30 22 14 9 5 360 355 353 353 352 352 352 353 357 359 358 356 357 357 356 353 350 348 346 344 342 339 338 337 335 331 326 326 327 328 327 325 323 322 320 317 314 311 309 306 301 297
359 356 354 353 350 343 330 314 299 290 287 286 286 285 281 274 267 264 268 276 286 295 300 308 323 336 339 343 355 2 359 358 3 11 18 26 34 35 29 18 12 10 4 359 358 358 358 357 357 357 359 2 2 359 358 0 360 357 354 350 346 342 340 340 338 336 337 337 334 329 327 326 327 329 329 328 328 328 325 321 318 319 323 324 322
360 358 359 359 355 348 338 324 308 303 304 301 298 296 286 270 260 262 269 279 288 294 298 308 327 336 336 344 358 2 1 2 2 8 22 34 37 31 22 14 11 9 4 1 2 2 1 1 2 3 4 6 6 1 359 360 358 356 352 347 343 339 337 335 334 333 332 333 333 330 329 329 330 332 335 333 332 332 330 326 323 322 325 326 324
4 1 2 359 355 348 344 342 335 329 328 322 314 302 280 266 265 269 273 278 287 296 302 318 332 331 334 347 359 1 5 2 358 11 30 37 34 25 15 9 7 6 4 4 6 5 4 5 7 7 6 9 10 4 360 359 359 356 351 345 342 339 336 333 331 330 329 329 330 329 329 331 333 336 338 337 336 333 330 326 324 323 324 324 321
6 4 5 2 1 1 358 359 358 346 340 336 327 281 242 247 265 273 269 273 287 298 309 326 331 328 335 349 357 2 10 2 360 16 32 35 30 19 8 5 4 4 5 7 9 7 7 8 10 10 7 9 11 8 3 2 1 357 352 348 344 340 337 333 330 330 331 333 334 334 333 334 335 338 340 339 337 334 331 327 323 321 320 319 318
9 7 7 9 15 19 11 5 3 358 349 344 341 229 216 221 230 252 261 273 291 305 313 321 325 329 337 345 355 8 12 2 8 21 25 26 23 10 1 1 1 2 5 9 10 9 8 10 12 12 9 9 11 11 7 4 2 360 357 356 354 350 345 341 339 341 344 346 348 345 344 344 343 341 340 339 338 336 333 331 327 322 319 317 315
10 6 10 17 24 27 19 9 7 7 1 353 38 85 171 202 208 239 267 281 299 311 309 311 327 334 332 328 353 28 20 4 16 25 19 14 12 4 358 358 358 0 4 8 10 10 9 10 13 14 12 10 11 12 9 6 5 4 3 5 7 4 1 359 357 357 358 359 360 357 353 353 351 346 341 339 337 334 332 330 327 324 320 317 315
7 9 21 25 27 28 22 18 19 21 22 31 49 62 137 197 202 237 269 283 298 303 298 311 333 327 311 303 8 31 19 3 17 24 13 2 0 358 355 355 356 358 3 6 9 10 10 10 14 16 14 11 10 11 10 7 7 6 4 6 9 9 9 8 4 3 2 4 5 2 358 357 355 350 345 341 337 333 330 328 325 322 319 315 313
7 20 35 33 31 29 24 27 39 46 57 73 82 110 159 167 173 224 257 275 288 290 298 318 332 306 269 274 26 25 7 359 13 15 2 350 349 350 350 352 354 357 1 5 8 9 9 11 13 16 17 14 10 10 10 7 7 8 6 4 4 5 6 6 4 2 2 3 4 2 358 355 354 351 347 343 339 335 333 333 331 325 322 318 313
17 36 45 39 35 32 28 34 51 61 66 79 98 112 126 133 165 222 251 277 288 288 301 321 321 236 226 230 35 18 354 351 4 1 350 342 340 341 344 348 351 355 359 2 5 7 9 11 13 15 17 16 12 9 8 7 5 6 6 5 3 2 2 3 2 1 1 1 1 1 359 355 351 349 346 343 340 338 335 335 335 332 327 323 318
35 50 52 47 41 36 35 40 53 65 68 78 92 100 117 165 213 240 269 288 283 287 301 316 212 200 203 187 29 3 334 335 358 351 339 334 333 335 339 344 348 352 355 358 1 3 6 10 12 13 15 17 14 10 7 6 4 3 3 3 2 0 360 360 359 359 359 359 358 357 357 356 353 349 346 343 340 339 338 336 335 334 331 327 322
54 61 57 55 49 42 40 41 46 55 63 71 84 99 143 218 256 280 300 293 283 287 297 296 200 195 200 198 360 334 309 318 346 339 329 329 329 331 336 341 345 348 351 355 359 1 4 8 10 11 12 14 13 10 7 6 4 1 359 358 359 359 357 356 356 356 355 354 353 353 355 355 355 352 349 347 345 343 342 338 334 331 329 328 325
68 75 65 62 57 50 45 42 41 43 48 54 59 67 54 284 297 306 306 299 292 291 293 278 205 197 210 284 314 307 304 317 331 326 324 327 328 330 335 340 342 344 347 353 357 359 1 5 7 8 9 10 9 8 6 5 3 2 359 356 355 356 355 355 356 355 354 353 353 353 353 353 353 353 353 352 352 351 348 343 338 333 328 325 323
80 93 78 71 65 58 52 47 43 42 42 43 41 37 21 341 321 317 310 300 296 295 294 273 206 204 257 281 286 297 307 317 320 319 323 328 329 330 334 338 339 341 344 349 354 357 360 3 4 5 6 7 6 4 3 1 360 360 360 357 354 353 353 353 355 355 356 356 356 355 354 352 351 351 354 356 357 356 354 350 346 341 334 326 321
76 102 88 78 71 63 56 51 47 44 43 42 39 36 27 12 355 339 324 315 310 305 304 285 219 251 287 284 289 299 307 312 314 318 325 329 328 329 332 336 337 339 342 346 351 356 358 0 1 2 4 4 3 2 0 358 356 357 357 356 354 352 349 348 349 351 351 353 354 355 354 353 350 349 351 355 357 356 356 356 356 354 348 339 329
51 98 101 86 73 64 57 52 49 46 44 43 44 44 39 30 21 9 357 349 339 325 323 320 268 286 300 297 297 300 304 307 310 316 324 326 324 324 328 333 335 338 342 344 349 353 355 356 359 1 2 2 1 0 360 358 356 355 355 353 351 349 346 343 343 343 344 345 347 349 351 351 349 348 349 352 353 353 351 352 354 358 359 355 347
20 358 143 105 80 64 56 51 47 45 43 42 44 47 45 37 30 23 19 17 11 357 351 320 269 285 300 301 301 303 305 308 311 316 322 322 320 320 323 328 333 337 342 346 348 351 351 352 354 358 1 1 360 359 359 358 357 356 355 353 349 345 341 339 337 335 335 336 338 340 344 346 347 347 348 350 352 353 349 346 347 352 357 359 357
297 276 274 120 105 72 58 49 41 39 38 38 42 46 44 40 36 32 29 28 23 18 11 313 283 285 291 296 302 306 309 312 316 319 320 318 317 317 318 322 328 334 341 346 348 349 348 348 349 353 357 359 360 359 358 358 357 357 356 355 351 345 340 336 333 331 330 329 330 332 334 337 341 344 346 346 350 353 349 344 343 344 348 353 356
249 261 292 57 124 77 51 41 31 27 27 30 35 38 38 36 35 36 37 38 35 25 8 335 309 299 299 305 311 314 317 320 321 319 316 314 313 313 315 318 323 329 336 341 344 347 347 345 345 348 351 355 358 359 358 357 356 356 356 356 353 348 344 339 334 330 328 327 327 328 328 329 331 336 342 345 348 350 346 344 344 342 341 344 349
232 244 282 325 318 349 19 20 15 11 13 18 21 24 26 26 26 29 32 34 36 31 22 11 354 342 337 337 338 337 333 328 322 316 311 310 310 311 312 314 318 323 329 334 338 342 345 344 344 345 348 351 354 356 357 356 355 355 355 355 354 350 347 345 340 335 330 329 329 329 328 325 325 328 335 341 345 346 342 340 344 346 345 345 345
221 229 269 312 314 299 331 354 355 353 359 7 8 10 13 13 14 17 19 21 24 23 20 16 10 4 1 358 356 352 347 339 328 317 308 305 306 309 312 313 316 319 322 327 331 336 340 341 342 342 345 349 351 352 354 355 355 354 353 353 355 353 350 348 346 342 336 333 333 332 330 326 323 323 327 333 339 341 339 337 340 345 347 350 351
213 226 271 310 316 298 306 324 332 338 346 355 359 360 3 4 5 6 7 9 11 11 9 7 4 3 1 359 358 356 353 349 342 332 321 312 308 310 311 313 314 316 318 321 325 328 332 336 337 339 343 348 350 349 350 353 354 353 352 353 354 355 353 351 349 347 343 339 337 336 335 331 326 322 320 324 330 336 336 335 335 339 344 351 356
209 222 271 321 327 305 308 315 322 329 333 340 346 348 350 353 355 357 359 359 359 358 358 356 355 355 354 354 355 354 352 351 349 347 343 335 325 319 316 314 314 315 316 318 320 322 324 329 333 335 339 344 348 348 348 350 350 350 351 351 353 354 355 354 352 350 348 344 341 340 338 335 332 325 317 317 324 332 336 333 330 335 342 349 356
213 221 253 314 328 303 306 311 318 322 323 326 330 333 337 340 344 349 352 350 346 343 341 339 340 341 341 341 342 343 344 345 345 346 347 346 342 336 328 322 317 315 314 315 317 318 319 323 328 331 334 338 343 346 347 347 347 347 348 349 350 353 355 356 354 353 350 347 343 342 341 339 336 330 320 314 319 329 336 333 328 333 340 346 354
223 227 239 264 279 288 302 309 315 319 318 321 324 326 330 334 336 338 339 338 335 332 328 326 327 329 327 325 326 330 333 335 337 339 340 342 343 342 338 334 328 322 317 316 316 316 317 320 323 325 328 331 336 341 343 344 345 345 345 346 348 351 355 358 357 354 352 349 346 344 344 342 340 334 324 315 317 328 339 340 334 333 338 343 351
227 231 238 247 256 268 288 300 306 310 313 315 318 320 322 325 327 329 330 327 325 323 320 319 321 323 321 320 321 324 326 328 329 330 331 333 335 337 338 338 337 333 328 323 319 317 316 318 320 322 323 326 329 333 337 340 342 343 343 344 347 349 353 358 358 355 353 350 348 347 346 345 343 338 329 319 317 327 339 348 349 345 341 340 348
232 237 243 251 260 267 277 286 293 297 302 307 310 311 312 314 318 321 321 318 316 315 314 314 316 319 320 322 322 322 323 325 325 325 326 326 327 329 332 334 335 335 333 329 325 321 318 318 319 320 321 321 323 326 331 334 337 341 343 344 346 348 351 356 357 355 354 351 349 348 347 346 345 342 334 326 321 323 334 347 356 356 349 342 343
247 246 248 253 262 267 269 276 285 291 296 299 301 302 303 308 313 316 316 314 312 312 312 312 314 317 320 324 326 325 324 325 324 324 324 323 323 324 326 328 331 331 330 327 326 324 323 321 321 321 320 319 319 322 325 329 332 336 340 343 344 346 349 353 356 356 354 352 350 349 349 348 346 343 339 333 327 321 326 339 350 354 352 349 347
265 263 261 260 265 270 274 278 285 291 295 298 298 298 300 305 311 312 310 309 309 311 315 318 319 320 320 322 324 323 322 321 323 325 325 324 324 324 324 325 327 328 326 324 323 324 325 325 325 324 323 321 319 319 322 325 327 330 335 339 342 344 346 350 354 356 355 352 350 349 350 349 346 343 342 339 332 321 317 330 342 346 349 353 353
271 274 276 275 277 281 283 285 289 293 298 301 302 302 303 306 307 306 305 305 308 312 317 319 319 319 319 319 320 320 318 318 321 323 323 323 323 324 322 322 323 325 325 323 321 322 323 324 326 326 325 323 321 319 319 321 323 326 329 333 337 341 344 347 351 353 354 353 350 349 349 348 346 344 342 342 338 324 312 319 332 339 342 348 347
277 280 283 283 284 286 289 291 295 298 301 302 302 301 302 303 303 301 301 303 304 308 311 312 312 315 316 316 316 316 316 317 318 319 318 317 318 319 319 319 319 320 322 322 322 323 323 323 323 323 322 322 322 321 320 321 322 323 325 329 333 337 340 344 347 350 352 352 350 349 348 347 346 344 341 341 340 328 311 308 318 328 332 334 335
281 282 283 284 284 286 289 293 297 298 298 299 301 302 303 304 304 303 303 303 304 305 306 307 308 311 311 312 312 313 314 315 316 315 314 314 315 316 316 317 317 316 317 319 322 323 324 324 324 322 321 320 320 322 323 323 323 323 324 326 330 333 336 341 344 347 350 350 349 348 347 346 345 344 340 339 336 326 315 309 310 316 320 321 326
269 266 269 274 277 283 291 298 302 304 306 308 311 313 314 315 315 315 314 314 313 312 310 309 308 309 311 314 315 315 316 318 318 318 319 319 319 319 318 318 317 314 314 318 322 323 323 325 327 328 326 323 321 322 323 324 324 324 323 324 326 328 331 336 341 344 347 348 347 347 346 345 345 344 341 338 332 323 318 315 310 308 310 314 320
260 265 280 293 300 309 319 322 321 322 323 324 324 325 326 327 327 326 325 326 326 324 323 322 320 319 320 320 319 319 321 323 323 323 322 322 322 320 319 320 319 318 318 319 321 321 321 324 328 330 329 327 325 324 324 325 325 325 323 321 321 323 326 331 336 340 343 344 345 346 346 345 344 344 342 338 332 323 317 316 311 304 301 308 315
285 326 320 319 322 332 339 338 333 329 327 327 326 327 328 328 329 329 328 329 330 330 332 335 335 335 334 331 328 327 327 326 325 323 322 321 321 320 320 320 320 320 320 319 319 319 320 323 327 328 328 327 326 325 325 325 326 325 322 320 319 319 321 325 331 335 338 340 341 344 345 345 345 344 343 340 335 327 319 315 312 303 294 301 311
265 310 324 333 342 353 355 347 338 332 330 331 329 328 327 326 326 328 329 328 328 329 331 335 337 338 339 338 336 335 333 330 329 327 325 325 324 323 322 320 319 317 317 316 317 318 317 319 323 325 324 324 323 322 322 324 326 327 325 322 322 321 320 322 327 331 333 335 338 341 344 344 344 344 343 341 338 333 325 319 317 309 296 294 303
277 314 333 345 354 359 356 348 340 336 336 336 334 331 328 326 325 325 325 325 326 327 328 331 333 334 334 335 333 332 331 330 329 328 328 327 326 325 324 322 320 318 316 314 313 313 312 312 316 318 319 318 317 317 319 321 324 326 326 324 325 325 324 323 326 327 328 331 334 338 341 344 344 343 342 341 339 336 332 327 322 314 304 300 300
310 331 335 339 346 348 346 342 339 337 336 335 333 331 329 327 326 325 324 324 325 326 327 329 330 329 328 328 327 326 327 326 326 326 326 325 324 323 323 322 321 319 317 315 313 311 310 310 311 313 313 311 309 310 313 315 317 320 321 321 323 329 330 329 327 325 324 325 329 335 340 342 343 344 342 340 338 336 335 333 329 319 312 312 309
314 321 323 330 336 338 337 338 340 339 336 333 331 329 327 327 327 327 327 326 325 324 323 324 324 323 322 321 321 322 323 323 323 322 322 322 322 322 321 321 321 320 319 318 317 314 312 310 308 306 304 302 302 305 308 308 309 311 314 315 319 325 328 327 327 326 325 324 326 332 338 341 342 344 343 341 339 336 333 331 331 325 317 310 305
287 304 315 323 330 332 333 335 339 338 332 329 328 327 327 327 327 327 328 328 326 324 322 319 317 316 316 315 316 317 317 318 318 319 319 320 320 321 321 321 321 321 320 320 319 317 316 314 309 303 297 294 297 301 302 301 301 304 308 312 316 321 323 324 326 329 331 329 326 328 333 337 339 341 343 342 340 337 333 330 327 321 312 300 292
290 306 317 323 326 328 329 330 332 331 326 325 326 326 326 326 327 327 328 328 327 326 323 321 318 317 315 313 314 314 314 315 316 316 318 319 320 320 321 320 320 321 321 321 320 319 318 317 313 309 302 297 295 294 292 293 296 299 304 310 315 318 318 321 325 329 332 332 330 326 326 330 335 338 340 340 339 336 333 329 325 317 305 293 286
298 307 314 316 318 321 324 326 326 325 323 324 324 324 324 325 326 327 328 328 327 326 324 323 322 320 318 317 316 315 314 315 316 316 318 319 319 320 319 319 320 320 320 320 320 320 320 320 319 316 312 306 302 297 294 295 298 300 302 306 310 310 310 316 323 326 329 332 332 327 323 324 329 333 336 336 336 335 332 329 325 318 306 293 286
304 308 308 310 314 320 323 322 321 320 321 322 322 322 322 323 324 325 326 325 325 324 324 323 322 321 320 319 319 318 317 317 317 318 319 320 320 320 320 319 319 319 319 320 321 321 323 324 324 324 322 317 312 308 305 304 304 304 301 300 302 303 304 311 317 321 323 328 330 328 324 322 323 328 332 333 333 332 329 326 323 319 311 299 289
305 304 305 309 317 320 319 317 317 318 319 320 319 319 320 321 323 323 324 323 322 322 321 320 320 320 319 318 317 317 317 318 319 320 321 321 321 322 321 320 320 319 318 319 320 321 323 325 325 326 326 323 319 317 314 311 310 308 301 297 297 298 299 305 311 315 318 322 325 325 326 323 321 322 325 327 329 329 326 323 320 317 313 306 297
298 298 303 310 315 315 313 314 315 316 315 315 315 316 318 320 321 322 321 320 320 319 319 319 318 318 317 316 316 316 317 318 319 319 320 321 321 320 319 319 318 317 316 316 317 319 322 323 324 324 325 323 321 320 317 315 313 310 305 300 296 294 297 304 309 312 317 321 322 322 324 325 325 325 323 321 321 323 322 319 316 313 310 307 302
294 299 304 308 308 307 308 310 312 312 311 311 313 314 315 317 317 317 317 317 317 318 318 317 317 316 315 315 316 316 316 318 318 319 320 320 320 319 318 318 317 315 315 315 316 317 318 319 320 321 322 322 321 320 318 316 314 311 308 304 299 295 295 297 298 300 308 317 319 318 318 319 321 323 323 320 316 315 316 317 315 311 308 306 303
296 301 304 305 303 303 305 307 308 308 309 309 310 310 311 312 312 313 315 316 318 318 317 316 315 314 315 315 315 316 317 318 319 319 319 319 318 318 318 318 317 316 316 316 316 317 317 318 318 319 319 320 320 319 318 316 314 311 309 307 304 300 296 291 287 289 297 304 307 310 313 314 314 315 317 317 315 311 309 310 312 311 308 305 301
297 301 304 304 302 302 303 305 307 308 309 309 310 310 310 312 313 314 317 319 320 319 316 314 313 313 314 314 315 315 316 317 318 318 318 317 317 317 317 317 317 317 317 318 318 318 318 318 319 318 318 318 318 317 317 316 315 313 311 309 307 303 299 295 291 291 292 291 292 298 306 310 311 310 310 312 314 312 308 305 306 307 307 304 300